QPF
0.00 0.00 0.00 0.00 0.00 0.00 0.00 0.00 0.01 0.00 0.00 0.00 0.00 0.00 0.00 0.00 0.00 0.01 0.02 0.02 0.03 0.03 0.03 0.02 0.02 0.01 0.01 0.01 0.01 0.00 0.00 0.00 0.00 0.00 0.00 0.00 0.00 0.00 0.00 0.01 0.01 0.01 0.01
0.00 0.00 0.00 0.00 0.00 0.00 0.01 0.01 0.00 0.00 0.00 0.00 0.00 0.00 0.00 0.01 0.01 0.01 0.02 0.02 0.03 0.03 0.02 0.01 0.01 0.01 0.00 0.00 0.00 0.00 0.00 0.00 0.00 0.00 0.00 0.00 0.00 0.00 0.00 0.01 0.01 0.01 0.01
0.00 0.00 0.00 0.00 0.00 0.01 0.01 0.00 0.00 0.00 0.00 0.00 0.00 0.00 0.01 0.01 0.01 0.01 0.02 0.02 0.02 0.02 0.01 0.01 0.01 0.01 0.00 0.00 0.00 0.00 0.00 0.00 0.00 0.00 0.01 0.01 0.01 0.01 0.01 0.01 0.01 0.01 0.01
0.00 0.00 0.00 0.00 0.00 0.01 0.00 0.00 0.00 0.00 0.01 0.01 0.00 0.01 0.01 0.01 0.01 0.01 0.01 0.01 0.01 0.01 0.00 0.00 0.00 0.00 0.00 0.00 0.00 0.00 0.00 0.00 0.00 0.00 0.01 0.01 0.01 0.01 0.01 0.01 0.01 0.02 0.01
0.00 0.00 0.00 0.00 0.01 0.01 0.00 0.00 0.00 0.01 0.01 0.00 0.00 0.01 0.01 0.01 0.01 0.01 0.01 0.00 0.00 0.00 0.00 0.00 0.00 0.00 0.00 0.00 0.00 0.00 0.00 0.00 0.00 0.00 0.01 0.01 0.00 0.00 0.00 0.00 0.01 0.01 0.01
0.00 0.00 0.00 0.00 0.01 0.01 0.00 0.00 0.00 0.00 0.00 0.00 0.00 0.01 0.01 0.01 0.01 0.00 0.00 0.00 0.00 0.00 0.00 0.00 0.00 0.00 0.00 0.00 0.00 0.00 0.00 0.00 0.00 0.00 0.01 0.01 0.00 0.00 0.00 0.00 0.00 0.00 0.00
0.00 0.00 0.00 0.01 0.01 0.01 0.01 0.01 0.00 0.00 0.00 0.00 0.00 0.01 0.01 0.01 0.01 0.00 0.00 0.00 0.00 0.00 0.00 0.00 0.00 0.00 0.00 0.00 0.00 0.00 0.00 0.00 0.00 0.00 0.00 0.00 0.00 0.00 0.00 0.00 0.00 0.00 0.00
0.00 0.00 0.01 0.01 0.01 0.01 0.01 0.01 0.00 0.00 0.00 0.00 0.00 0.01 0.01 0.01 0.00 0.00 0.00 0.00 0.00 0.00 0.00 0.00 0.00 0.00 0.00 0.00 0.00 0.00 0.00 0.00 0.00 0.00 0.00 0.00 0.00 0.00 0.00 0.00 0.00 0.00 0.00
0.00 0.01 0.01 0.01 0.01 0.01 0.01 0.01 0.00 0.00 0.00 0.00 0.01 0.01 0.01 0.00 0.00 0.00 0.00 0.00 0.00 0.00 0.00 0.00 0.00 0.00 0.00 0.00 0.00 0.00 0.00 0.00 0.00 0.00 0.00 0.00 0.00 0.00 0.00 0.00 0.00 0.00 0.00
0.00 0.01 0.01 0.01 0.01 0.01 0.01 0.01 0.00 0.00 0.00 0.00 0.00 0.00 0.00 0.00 0.00 0.00 0.00 0.00 0.00 0.00 0.00 0.00 0.00 0.00 0.00 0.00 0.00 0.00 0.00 0.00 0.00 0.00 0.00 0.00 0.00 0.00 0.00 0.00 0.00 0.00 0.00
0.01 0.01 0.02 0.01 0.01 0.01 0.01 0.01 0.00 0.00 0.00 0.00 0.00 0.00 0.00 0.00 0.00 0.00 0.00 0.00 0.00 0.00 0.00 0.00 0.00 0.00 0.00 0.00 0.00 0.00 0.00 0.00 0.00 0.00 0.00 0.00 0.00 0.00 0.00 0.00 0.00 0.00 0.00
0.01 0.02 0.02 0.01 0.01 0.02 0.01 0.01 0.00 0.00 0.00 0.00 0.00 0.00 0.00 0.00 0.00 0.00 0.00 0.00 0.00 0.00 0.00 0.00 0.00 0.00 0.00 0.00 0.00 0.00 0.00 0.00 0.00 0.00 0.00 0.00 0.00 0.00 0.00 0.00 0.00 0.00 0.00
0.02 0.02 0.02 0.02 0.02 0.02 0.01 0.01 0.01 0.00 0.00 0.00 0.00 0.00 0.00 0.00 0.00 0.00 0.00 0.00 0.00 0.00 0.00 0.00 0.00 0.00 0.00 0.00 0.00 0.00 0.00 0.00 0.00 0.00 0.00 0.00 0.00 0.00 0.00 0.00 0.00 0.00 0.00
0.05 0.03 0.03 0.03 0.02 0.02 0.01 0.01 0.01 0.00 0.00 0.00 0.00 0.00 0.00 0.00 0.00 0.00 0.00 0.00 0.00 0.00 0.00 0.00 0.00 0.00 0.00 0.00 0.00 0.00 0.00 0.00 0.00 0.00 0.00 0.00 0.00 0.00 0.00 0.00 0.00 0.00 0.00
0.07 0.05 0.04 0.04 0.03 0.02 0.02 0.01 0.00 0.00 0.00 0.00 0.00 0.00 0.00 0.00 0.00 0.00 0.00 0.00 0.00 0.00 0.00 0.00 0.00 0.00 0.00 0.00 0.00 0.00 0.00 0.00 0.00 0.00 0.00 0.00 0.00 0.00 0.00 0.00 0.00 0.00 0.00
0.09 0.10 0.07 0.05 0.05 0.04 0.03 0.01 0.00 0.00 0.00 0.00 0.00 0.00 0.00 0.00 0.00 0.00 0.00 0.00 0.00 0.00 0.00 0.00 0.00 0.00 0.00 0.00 0.00 0.00 0.00 0.00 0.00 0.00 0.00 0.00 0.00 0.00 0.00 0.00 0.00 0.01 0.01
0.07 0.10 0.10 0.09 0.08 0.06 0.04 0.02 0.01 0.01 0.00 0.00 0.00 0.00 0.00 0.00 0.00 0.00 0.00 0.00 0.00 0.00 0.00 0.00 0.00 0.00 0.00 0.00 0.00 0.00 0.00 0.00 0.00 0.00 0.00 0.00 0.00 0.00 0.00 0.00 0.00 0.01 0.02
0.04 0.05 0.10 0.10 0.08 0.08 0.06 0.04 0.02 0.01 0.02 0.01 0.01 0.00 0.00 0.00 0.00 0.00 0.00 0.00 0.00 0.00 0.00 0.00 0.00 0.00 0.00 0.00 0.00 0.00 0.00 0.00 0.00 0.00 0.00 0.00 0.00 0.00 0.00 0.00 0.00 0.00 0.01
0.03 0.03 0.06 0.06 0.06 0.08 0.11 0.11 0.08 0.05 0.03 0.02 0.02 0.01 0.01 0.01 0.00 0.00 0.00 0.00 0.00 0.00 0.00 0.00 0.00 0.00 0.00 0.00 0.00 0.00 0.00 0.00 0.00 0.00 0.00 0.00 0.00 0.00 0.00 0.00 0.00 0.00 0.00
0.02 0.04 0.05 0.06 0.07 0.12 0.16 0.16 0.14 0.11 0.08 0.06 0.04 0.02 0.01 0.01 0.01 0.01 0.01 0.01 0.01 0.01 0.01 0.01 0.01 0.01 0.00 0.00 0.00 0.00 0.00 0.00 0.00 0.00 0.00 0.00 0.00 0.00 0.00 0.01 0.00 0.00 0.00
0.02 0.04 0.04 0.05 0.07 0.10 0.12 0.12 0.12 0.11 0.11 0.10 0.08 0.06 0.04 0.02 0.01 0.01 0.01 0.01 0.01 0.01 0.01 0.01 0.01 0.01 0.01 0.01 0.01 0.00 0.00 0.00 0.00 0.00 0.00 0.00 0.00 0.00 0.00 0.00 0.00 0.00 0.00
0.02 0.02 0.04 0.04 0.06 0.08 0.08 0.10 0.11 0.15 0.18 0.18 0.13 0.08 0.07 0.05 0.04 0.03 0.02 0.02 0.02 0.01 0.01 0.01 0.01 0.01 0.01 0.01 0.01 0.01 0.01 0.00 0.00 0.00 0.00 0.00 0.00 0.00 0.00 0.00 0.00 0.00 0.00
0.01 0.02 0.04 0.04 0.05 0.07 0.07 0.10 0.12 0.14 0.13 0.14 0.13 0.10 0.07 0.06 0.05 0.06 0.05 0.04 0.04 0.03 0.02 0.02 0.02 0.02 0.02 0.02 0.02 0.03 0.02 0.01 0.01 0.00 0.01 0.00 0.00 0.00 0.00 0.00 0.00 0.00 0.00
0.01 0.03 0.04 0.06 0.06 0.05 0.06 0.06 0.08 0.10 0.08 0.09 0.10 0.10 0.10 0.09 0.07 0.07 0.06 0.05 0.05 0.04 0.03 0.03 0.04 0.05 0.05 0.04 0.03 0.03 0.03 0.03 0.03 0.02 0.01 0.00 0.00 0.00 0.00 0.00 0.00 0.00 0.00
0.01 0.03 0.04 0.04 0.05 0.06 0.07 0.07 0.07 0.08 0.09 0.09 0.10 0.09 0.09 0.08 0.07 0.06 0.06 0.07 0.06 0.04 0.03 0.03 0.04 0.04 0.04 0.04 0.03 0.03 0.02 0.02 0.02 0.03 0.02 0.01 0.00 0.01 0.00 0.00 0.00 0.00 0.00
0.01 0.02 0.03 0.04 0.03 0.04 0.05 0.05 0.06 0.07 0.09 0.08 0.08 0.07 0.07 0.06 0.04 0.03 0.03 0.04 0.03 0.03 0.03 0.03 0.03 0.02 0.02 0.03 0.03 0.02 0.02 0.02 0.01 0.02 0.02 0.02 0.02 0.01 0.01 0.00 0.00 0.00 0.00
MSLP
1012.87 1013.02 1013.25 1013.57 1013.99 1014.45 1014.93 1015.37 1015.74 1016.02 1016.23 1016.40 1016.55 1016.70 1016.87 1017.05 1017.22 1017.36 1017.47 1017.57 1017.66 1017.78 1017.95 1018.16 1018.42 1018.69 1018.95 1019.15 1019.29 1019.37 1019.40 1019.40 1019.42 1019.46 1019.54 1019.63 1019.72 1019.78 1019.78 1019.73 1019.63 1019.51 1019.40
1012.46 1012.75 1013.13 1013.61 1014.15 1014.71 1015.23 1015.66 1015.99 1016.23 1016.40 1016.56 1016.74 1016.95 1017.19 1017.43 1017.66 1017.84 1017.98 1018.07 1018.15 1018.26 1018.41 1018.62 1018.87 1019.14 1019.39 1019.59 1019.71 1019.75 1019.76 1019.74 1019.75 1019.80 1019.89 1020.01 1020.12 1020.20 1020.21 1020.15 1020.04 1019.90 1019.76
1012.07 1012.48 1013.01 1013.64 1014.32 1014.97 1015.53 1015.96 1016.27 1016.47 1016.62 1016.77 1016.96 1017.21 1017.51 1017.81 1018.08 1018.29 1018.43 1018.52 1018.58 1018.67 1018.80 1018.99 1019.24 1019.51 1019.75 1019.94 1020.04 1020.08 1020.06 1020.04 1020.05 1020.11 1020.23 1020.38 1020.53 1020.63 1020.66 1020.61 1020.49 1020.33 1020.17
1011.76 1012.28 1012.94 1013.70 1014.49 1015.22 1015.82 1016.26 1016.55 1016.73 1016.86 1017.00 1017.21 1017.49 1017.82 1018.16 1018.47 1018.70 1018.84 1018.92 1018.97 1019.03 1019.15 1019.33 1019.57 1019.83 1020.07 1020.24 1020.34 1020.36 1020.34 1020.32 1020.34 1020.42 1020.56 1020.75 1020.92 1021.06 1021.11 1021.07 1020.95 1020.79 1020.63
1011.61 1012.19 1012.95 1013.81 1014.68 1015.47 1016.11 1016.55 1016.83 1016.99 1017.10 1017.24 1017.46 1017.77 1018.13 1018.50 1018.83 1019.07 1019.22 1019.30 1019.34 1019.39 1019.50 1019.67 1019.89 1020.15 1020.37 1020.54 1020.62 1020.64 1020.62 1020.60 1020.63 1020.72 1020.89 1021.10 1021.30 1021.46 1021.53 1021.51 1021.41 1021.26 1021.10
1011.63 1012.25 1013.05 1013.97 1014.90 1015.72 1016.37 1016.81 1017.08 1017.23 1017.34 1017.48 1017.71 1018.03 1018.42 1018.82 1019.17 1019.43 1019.60 1019.68 1019.73 1019.78 1019.88 1020.04 1020.26 1020.49 1020.71 1020.86 1020.93 1020.93 1020.91 1020.89 1020.92 1021.03 1021.21 1021.43 1021.65 1021.82 1021.91 1021.91 1021.83 1021.70 1021.55
1011.80 1012.42 1013.24 1014.18 1015.11 1015.94 1016.58 1017.03 1017.29 1017.44 1017.55 1017.71 1017.95 1018.30 1018.70 1019.12 1019.50 1019.79 1019.98 1020.08 1020.15 1020.21 1020.31 1020.47 1020.68 1020.89 1021.08 1021.21 1021.26 1021.25 1021.22 1021.20 1021.23 1021.34 1021.52 1021.74 1021.96 1022.14 1022.25 1022.27 1022.20 1022.10 1021.98
1012.07 1012.68 1013.48 1014.39 1015.30 1016.11 1016.75 1017.18 1017.45 1017.61 1017.74 1017.92 1018.19 1018.55 1018.98 1019.42 1019.82 1020.14 1020.36 1020.49 1020.59 1020.67 1020.79 1020.94 1021.12 1021.31 1021.47 1021.57 1021.60 1021.57 1021.53 1021.50 1021.53 1021.63 1021.81 1022.02 1022.24 1022.42 1022.53 1022.57 1022.53 1022.45 1022.37
1012.40 1012.97 1013.73 1014.59 1015.46 1016.23 1016.84 1017.27 1017.55 1017.74 1017.90 1018.11 1018.40 1018.78 1019.23 1019.69 1020.11 1020.45 1020.70 1020.88 1021.00 1021.11 1021.23 1021.38 1021.55 1021.71 1021.83 1021.89 1021.89 1021.85 1021.80 1021.77 1021.79 1021.90 1022.07 1022.27 1022.48 1022.66 1022.78 1022.83 1022.81 1022.77 1022.72
1012.71 1013.25 1013.96 1014.75 1015.55 1016.27 1016.86 1017.29 1017.59 1017.81 1018.02 1018.27 1018.59 1018.99 1019.44 1019.91 1020.34 1020.70 1020.98 1021.19 1021.34 1021.47 1021.60 1021.74 1021.88 1022.01 1022.09 1022.12 1022.10 1022.05 1021.99 1021.97 1022.00 1022.11 1022.27 1022.48 1022.68 1022.86 1022.98 1023.04 1023.06 1023.04 1023.03
1012.99 1013.49 1014.14 1014.86 1015.59 1016.26 1016.81 1017.24 1017.57 1017.84 1018.09 1018.38 1018.73 1019.14 1019.59 1020.06 1020.48 1020.85 1021.15 1021.38 1021.55 1021.70 1021.83 1021.96 1022.08 1022.17 1022.22 1022.22 1022.19 1022.13 1022.08 1022.07 1022.12 1022.24 1022.42 1022.62 1022.83 1023.00 1023.13 1023.21 1023.25 1023.26 1023.27
1013.20 1013.68 1014.27 1014.92 1015.57 1016.18 1016.71 1017.14 1017.50 1017.81 1018.11 1018.43 1018.81 1019.22 1019.67 1020.11 1020.52 1020.89 1021.19 1021.42 1021.61 1021.77 1021.91 1022.03 1022.12 1022.18 1022.21 1022.19 1022.15 1022.10 1022.07 1022.08 1022.15 1022.29 1022.47 1022.68 1022.89 1023.07 1023.21 1023.31 1023.37 1023.41 1023.45
1013.36 1013.82 1014.35 1014.93 1015.51 1016.05 1016.55 1016.99 1017.37 1017.72 1018.07 1018.43 1018.82 1019.23 1019.65 1020.07 1020.46 1020.80 1021.10 1021.34 1021.54 1021.71 1021.84 1021.95 1022.03 1022.07 1022.08 1022.05 1022.01 1021.97 1021.96 1022.00 1022.09 1022.24 1022.43 1022.65 1022.86 1023.05 1023.20 1023.31 1023.39 1023.46 1023.52
1013.47 1013.91 1014.39 1014.90 1015.40 1015.90 1016.37 1016.80 1017.21 1017.60 1017.98 1018.36 1018.76 1019.16 1019.56 1019.94 1020.30 1020.63 1020.91 1021.16 1021.37 1021.55 1021.69 1021.79 1021.87 1021.90 1021.89 1021.86 1021.83 1021.80 1021.80 1021.85 1021.96 1022.11 1022.30 1022.51 1022.71 1022.90 1023.06 1023.18 1023.29 1023.38 1023.48
1013.54 1013.95 1014.39 1014.83 1015.28 1015.73 1016.17 1016.61 1017.03 1017.45 1017.86 1018.26 1018.65 1019.04 1019.41 1019.77 1020.10 1020.41 1020.69 1020.94 1021.16 1021.35 1021.50 1021.62 1021.69 1021.72 1021.71 1021.69 1021.65 1021.63 1021.64 1021.69 1021.79 1021.92 1022.09 1022.28 1022.46 1022.63 1022.79 1022.93 1023.05 1023.18 1023.30
1013.54 1013.94 1014.33 1014.72 1015.13 1015.54 1015.97 1016.41 1016.86 1017.30 1017.73 1018.13 1018.52 1018.89 1019.24 1019.57 1019.88 1020.18 1020.46 1020.72 1020.96 1021.17 1021.35 1021.47 1021.56 1021.59 1021.59 1021.57 1021.54 1021.52 1021.52 1021.55 1021.62 1021.72 1021.84 1021.98 1022.12 1022.26 1022.41 1022.55 1022.70 1022.85 1023.01
1013.47 1013.85 1014.21 1014.57 1014.95 1015.35 1015.79 1016.24 1016.70 1017.16 1017.60 1018.02 1018.39 1018.74 1019.07 1019.38 1019.67 1019.97 1020.26 1020.54 1020.81 1021.04 1021.24 1021.39 1021.49 1021.54 1021.56 1021.54 1021.52 1021.49 1021.47 1021.47 1021.48 1021.52 1021.58 1021.65 1021.74 1021.84 1021.96 1022.11 1022.27 1022.45 1022.64
1013.32 1013.67 1014.02 1014.37 1014.75 1015.16 1015.61 1016.09 1016.57 1017.05 1017.50 1017.91 1018.27 1018.60 1018.91 1019.20 1019.49 1019.79 1020.09 1020.39 1020.68 1020.95 1021.17 1021.35 1021.47 1021.55 1021.58 1021.58 1021.55 1021.52 1021.48 1021.44 1021.40 1021.37 1021.35 1021.35 1021.38 1021.44 1021.53 1021.67 1021.84 1022.05 1022.27
1013.07 1013.41 1013.76 1014.12 1014.52 1014.96 1015.44 1015.95 1016.47 1016.96 1017.41 1017.81 1018.16 1018.47 1018.75 1019.03 1019.31 1019.61 1019.92 1020.24 1020.55 1020.84 1021.09 1021.30 1021.45 1021.55 1021.60 1021.63 1021.62 1021.58 1021.53 1021.46 1021.37 1021.28 1021.20 1021.13 1021.10 1021.12 1021.19 1021.32 1021.50 1021.73 1021.97
1012.74 1013.07 1013.43 1013.82 1014.25 1014.74 1015.27 1015.82 1016.36 1016.86 1017.31 1017.70 1018.02 1018.30 1018.56 1018.82 1019.10 1019.39 1019.71 1020.05 1020.37 1020.68 1020.95 1021.18 1021.35 1021.49 1021.58 1021.63 1021.64 1021.63 1021.58 1021.49 1021.38 1021.26 1021.13 1021.02 1020.95 1020.94 1021.00 1021.13 1021.32 1021.56 1021.81
1012.35 1012.68 1013.06 1013.48 1013.97 1014.51 1015.08 1015.67 1016.22 1016.73 1017.17 1017.53 1017.83 1018.08 1018.32 1018.56 1018.83 1019.12 1019.44 1019.77 1020.11 1020.42 1020.70 1020.95 1021.15 1021.31 1021.44 1021.53 1021.59 1021.60 1021.58 1021.51 1021.40 1021.27 1021.13 1021.01 1020.94 1020.93 1020.99 1021.13 1021.34 1021.58 1021.84
1011.94 1012.28 1012.67 1013.14 1013.67 1014.25 1014.86 1015.47 1016.03 1016.53 1016.94 1017.28 1017.55 1017.78 1017.99 1018.22 1018.48 1018.77 1019.08 1019.42 1019.75 1020.06 1020.35 1020.60 1020.82 1021.01 1021.17 1021.31 1021.42 1021.48 1021.50 1021.47 1021.40 1021.30 1021.19 1021.09 1021.04 1021.06 1021.15 1021.32 1021.55 1021.81 1022.06
1011.56 1011.90 1012.32 1012.81 1013.37 1013.98 1014.60 1015.20 1015.75 1016.23 1016.62 1016.93 1017.18 1017.39 1017.59 1017.82 1018.07 1018.36 1018.67 1019.00 1019.32 1019.63 1019.91 1020.16 1020.39 1020.60 1020.80 1020.98 1021.13 1021.25 1021.32 1021.35 1021.34 1021.29 1021.24 1021.20 1021.21 1021.29 1021.43 1021.65 1021.91 1022.19 1022.45
1011.24 1011.60 1012.03 1012.53 1013.10 1013.70 1014.31 1014.88 1015.40 1015.85 1016.21 1016.49 1016.72 1016.93 1017.14 1017.38 1017.65 1017.95 1018.27 1018.59 1018.91 1019.20 1019.47 1019.71 1019.94 1020.16 1020.37 1020.57 1020.76 1020.92 1021.05 1021.14 1021.19 1021.21 1021.24 1021.28 1021.38 1021.53 1021.76 1022.04 1022.35 1022.66 1022.92
1011.03 1011.39 1011.82 1012.31 1012.86 1013.43 1014.00 1014.53 1015.00 1015.41 1015.74 1016.01 1016.25 1016.47 1016.71 1016.98 1017.28 1017.60 1017.94 1018.27 1018.58 1018.86 1019.11 1019.34 1019.55 1019.76 1019.96 1020.17 1020.37 1020.56 1020.72 1020.85 1020.96 1021.05 1021.15 1021.28 1021.47 1021.72 1022.03 1022.39 1022.76 1023.11 1023.40
1010.93 1011.30 1011.72 1012.19 1012.69 1013.21 1013.71 1014.19 1014.61 1014.98 1015.29 1015.56 1015.82 1016.08 1016.37 1016.69 1017.03 1017.39 1017.76 1018.10 1018.41 1018.68 1018.91 1019.11 1019.29 1019.47 1019.66 1019.84 1020.03 1020.21 1020.38 1020.53 1020.67 1020.81 1020.98 1021.18 1021.45 1021.79 1022.19 1022.63 1023.07 1023.48 1023.80
Thickness
5767 5765 5762 5760 5758 5756 5754 5752 5751 5749 5748 5747 5746 5746 5746 5745 5745 5744 5743 5742 5741 5740 5738 5736 5735 5733 5731 5730 5728 5727 5725 5724 5723 5722 5720 5720 5719 5718 5717 5716 5715 5713 5711
5770 5763 5760 5757 5755 5753 5751 5750 5748 5746 5745 5744 5744 5743 5743 5742 5741 5740 5740 5739 5737 5736 5734 5733 5731 5729 5728 5726 5725 5724 5723 5722 5720 5719 5718 5717 5715 5715 5713 5712 5711 5709 5708
5767 5761 5757 5755 5752 5750 5748 5747 5745 5743 5742 5741 5741 5740 5740 5739 5738 5737 5736 5735 5733 5732 5730 5729 5727 5726 5724 5723 5722 5721 5720 5719 5718 5717 5715 5714 5712 5711 5710 5708 5707 5705 5704
5763 5758 5754 5752 5749 5747 5745 5744 5742 5741 5739 5738 5738 5737 5736 5735 5734 5733 5732 5731 5729 5728 5726 5725 5723 5722 5721 5720 5719 5718 5718 5717 5717 5715 5713 5710 5709 5707 5706 5704 5703 5701 5700
5759 5755 5751 5748 5746 5744 5742 5741 5739 5738 5736 5735 5735 5734 5733 5732 5731 5729 5728 5727 5725 5723 5722 5721 5720 5718 5717 5716 5715 5715 5715 5714 5714 5712 5709 5707 5705 5703 5702 5700 5699 5697 5695
5756 5751 5746 5744 5743 5741 5739 5738 5736 5735 5733 5732 5731 5731 5730 5728 5727 5725 5724 5722 5721 5719 5718 5717 5716 5715 5714 5713 5712 5712 5712 5711 5711 5708 5706 5703 5701 5700 5698 5696 5694 5692 5691
5752 5747 5742 5740 5739 5737 5736 5735 5733 5732 5730 5729 5728 5727 5726 5725 5723 5722 5720 5719 5717 5716 5715 5714 5713 5712 5710 5709 5709 5709 5709 5708 5707 5705 5702 5699 5697 5696 5694 5692 5690 5688 5686
5748 5742 5738 5736 5735 5734 5732 5731 5730 5729 5727 5726 5725 5724 5723 5722 5720 5718 5717 5715 5714 5713 5712 5711 5710 5708 5707 5706 5706 5706 5706 5705 5704 5701 5698 5696 5694 5692 5690 5688 5686 5684 5682
5743 5738 5734 5732 5731 5729 5728 5727 5726 5725 5724 5723 5722 5721 5720 5718 5717 5715 5714 5712 5711 5710 5709 5707 5706 5705 5704 5703 5702 5703 5702 5702 5701 5699 5695 5692 5690 5688 5686 5684 5682 5679 5677
5737 5733 5731 5729 5727 5725 5724 5723 5723 5722 5721 5720 5719 5717 5716 5715 5714 5712 5711 5709 5708 5706 5705 5704 5703 5702 5701 5700 5700 5699 5699 5699 5697 5695 5692 5689 5687 5684 5682 5679 5677 5675 5672
5730 5730 5728 5727 5725 5723 5721 5719 5719 5718 5717 5716 5715 5714 5713 5712 5711 5709 5708 5706 5705 5704 5702 5701 5700 5699 5698 5698 5697 5697 5697 5696 5695 5692 5689 5686 5683 5681 5678 5675 5673 5671 5668
5723 5725 5726 5725 5723 5721 5719 5716 5715 5715 5714 5713 5712 5711 5711 5711 5709 5707 5705 5704 5702 5701 5700 5699 5698 5697 5696 5696 5695 5695 5694 5694 5693 5690 5687 5684 5680 5677 5675 5672 5669 5666 5664
5719 5721 5722 5722 5721 5719 5717 5715 5714 5713 5712 5712 5711 5710 5710 5709 5707 5705 5703 5701 5700 5698 5697 5696 5696 5696 5695 5695 5694 5693 5692 5692 5690 5688 5684 5681 5678 5674 5672 5668 5665 5662 5659
5715 5716 5718 5719 5718 5716 5715 5714 5713 5712 5711 5711 5710 5709 5709 5707 5705 5704 5702 5700 5699 5697 5696 5695 5695 5695 5694 5694 5693 5692 5691 5689 5687 5684 5681 5678 5675 5672 5669 5666 5662 5659 5656
5709 5712 5714 5715 5714 5713 5712 5711 5711 5710 5709 5709 5708 5707 5706 5705 5703 5702 5701 5699 5698 5697 5695 5694 5694 5694 5692 5692 5691 5689 5688 5686 5684 5682 5679 5676 5673 5670 5666 5663 5660 5656 5653
5704 5707 5709 5710 5710 5709 5708 5708 5708 5707 5706 5706 5705 5704 5703 5702 5701 5700 5699 5697 5696 5695 5694 5693 5692 5691 5690 5688 5687 5686 5684 5683 5681 5679 5676 5673 5670 5667 5664 5660 5657 5654 5650
5700 5702 5704 5705 5705 5705 5705 5704 5704 5704 5703 5702 5701 5700 5699 5699 5698 5696 5695 5694 5693 5692 5691 5689 5689 5688 5686 5685 5683 5682 5681 5680 5678 5676 5674 5671 5668 5665 5661 5658 5654 5651 5647
5697 5698 5699 5701 5701 5701 5701 5701 5700 5700 5699 5699 5697 5696 5695 5695 5694 5692 5691 5690 5690 5689 5688 5686 5684 5683 5681 5680 5679 5678 5678 5676 5674 5672 5671 5668 5666 5663 5659 5655 5651 5647 5643
5693 5694 5694 5696 5697 5697 5696 5696 5696 5696 5695 5694 5694 5692 5691 5691 5690 5688 5687 5687 5686 5685 5684 5682 5680 5678 5676 5675 5674 5674 5673 5672 5671 5669 5667 5665 5662 5659 5656 5651 5647 5643 5639
5688 5690 5690 5691 5692 5692 5692 5691 5690 5690 5690 5690 5689 5688 5687 5686 5685 5684 5683 5682 5681 5680 5678 5677 5675 5673 5672 5670 5670 5669 5668 5668 5667 5666 5663 5661 5658 5654 5651 5647 5642 5638 5634
5681 5683 5685 5685 5686 5686 5685 5684 5683 5682 5683 5683 5683 5683 5682 5681 5680 5679 5678 5677 5676 5675 5673 5672 5670 5668 5666 5665 5661 5660 5662 5664 5664 5662 5659 5656 5652 5648 5645 5640 5636 5632 5628
5673 5676 5679 5680 5681 5682 5681 5681 5679 5678 5677 5678 5677 5676 5676 5675 5675 5674 5673 5672 5671 5669 5668 5666 5664 5661 5660 5659 5654 5651 5650 5653 5657 5658 5654 5650 5645 5641 5637 5632 5628 5624 5620
5666 5669 5673 5674 5676 5676 5676 5675 5673 5671 5670 5670 5670 5670 5670 5670 5668 5667 5666 5666 5664 5663 5661 5660 5658 5655 5652 5652 5650 5645 5641 5640 5644 5646 5645 5641 5637 5632 5628 5623 5619 5615 5611
5660 5663 5666 5668 5669 5670 5670 5669 5667 5665 5663 5664 5664 5663 5663 5662 5661 5660 5659 5658 5657 5656 5654 5653 5652 5649 5647 5644 5643 5642 5640 5637 5632 5631 5632 5630 5627 5622 5618 5614 5610 5606 5602
5653 5655 5657 5659 5661 5662 5663 5663 5661 5660 5659 5658 5658 5656 5654 5654 5653 5652 5651 5650 5649 5647 5646 5645 5643 5642 5641 5638 5636 5634 5632 5630 5628 5622 5620 5618 5614 5611 5607 5604 5600 5596 5592
5644 5646 5648 5649 5651 5653 5655 5655 5654 5653 5651 5650 5649 5648 5646 5646 5645 5644 5642 5641 5640 5638 5637 5636 5635 5634 5633 5631 5629 5627 5624 5622 5620 5617 5614 5610 5606 5600 5596 5592 5588 5585 5581